Waarnemingen

Advertentie
Mijn weer
Ponza, Italië (16280): temperatuur & dauwpunt: 10.12.2017 19:00:00 - 16.12.2017 19:00:00 (CET)Ponza, Italië (16280): windsnelheid: 10.12.2017 19:00:00 - 16.12.2017 19:00:00 (CET)Ponza, Italië (16280): windrichting: 10.12.2017 19:00:00 - 16.12.2017 19:00:00 (CET)Ponza, Italië (16280): luchtdruk: 10.12.2017 19:00:00 - 16.12.2017 19:00:00 (CET)Ponza, Italië (16280): zicht: 10.12.2017 19:00:00 - 16.12.2017 19:00:00 (CET)Ponza, Italië (16280): Zonneschijnduur: 10.12.2017 19:00:00 - 16.12.2017 19:00:00 (CET)
Datum & Tijd tt [°C] td [°C] ff [km/u] ff [kn] dd ppp [hPa] vv [km] sd [min]
16.12.2017 19:00:00 11,0 4,9 34 18 W 1006,7 20 -
16.12.2017 18:00:00 11,0 4,7 29 16 W 1006,8 20 -
16.12.2017 17:00:00 11,0 4,7 34 18 W 1006,4 20 -
16.12.2017 16:00:00 11,8 5,4 22 12 W 1006,1 20 24
16.12.2017 15:00:00 12,0 5,9 29 16 W 1006,0 20 42
16.12.2017 14:00:00 12,4 6,7 28 15 W 1006,0 20 48
16.12.2017 13:00:00 12,4 6,9 24 13 W 1006,3 20 12
16.12.2017 12:00:00 12,6 7,1 26 14 W 1006,3 15 0
16.12.2017 11:00:00 12,4 7,1 18 10 NW 1006,4 15 48
16.12.2017 10:00:00 12,0 6,7 21 11 WNW 1006,0 10 30
16.12.2017 09:00:00 11,6 6,5 22 12 WNW 1005,0 10 0
16.12.2017 08:00:00 12,0 6,7 37 20 WNW 1005,3 10 -
16.12.2017 07:00:00 12,0 7,3 39 21 W 1004,4 10 -
16.12.2017 06:00:00 12,0 7,9 42 23 W 1003,9 10 -
16.12.2017 05:00:00 12,0 7,9 42 23 W 1003,5 10 -
16.12.2017 04:00:00 12,0 7,9 46 25 W 1003,5 10 -
16.12.2017 03:00:00 12,0 7,7 44 24 W 1003,2 10 -
16.12.2017 02:00:00 12,0 8,1 42 23 W 1001,6 10 -
16.12.2017 01:00:00 12,0 8,7 41 22 W 1001,9 10 -
16.12.2017 00:00:00 12,6 10,5 44 24 W 1001,8 9 -
15.12.2017 23:00:00 12,6 10,7 44 24 W 1001,8 9 -
15.12.2017 22:00:00 12,4 11,6 34 18 W 1001,1 9 -
15.12.2017 21:00:00 12,0 11,5 52 28 W 1000,2 7 -
15.12.2017 20:00:00 14,0 13,2 65 35 ZZW 999,0 6 -
15.12.2017 19:00:00 14,2 12,9 67 36 ZZW 999,6 5 -
15.12.2017 18:00:00 13,6 12,8 67 36 ZZW 1000,2 7 -
15.12.2017 17:00:00 14,0 12,4 65 35 ZZW 1000,4 7 -
15.12.2017 16:00:00 14,0 11,4 67 36 ZZW 1000,9 7 0
15.12.2017 15:00:00 14,0 10,8 55 30 ZZW 1001,7 7 0
15.12.2017 14:00:00 13,8 11,7 50 27 ZZW 1002,9 4,0 0
15.12.2017 13:00:00 13,8 11,1 46 25 ZZW 1003,8 6 0
15.12.2017 12:00:00 14,2 11,7 41 22 ZZW 1004,8 6 0
15.12.2017 11:00:00 14,0 13,2 35 19 ZZW 1005,9 6 0
15.12.2017 10:00:00 14,0 13,4 34 18 Z 1006,8 6 0
15.12.2017 09:00:00 13,8 12,9 34 18 ZZW 1007,4 6 0
15.12.2017 08:00:00 13,0 11,7 26 14 ZZW 1008,8 6 0
15.12.2017 07:00:00 13,2 11,6 29 16 ZZW 1008,7 6 -
15.12.2017 06:00:00 - - - - - - - -
15.12.2017 05:00:00 14,0 12,7 34 18 ZW 1009,6 7 -
15.12.2017 04:00:00 14,0 13,0 29 16 ZZW 1009,9 7 -
15.12.2017 03:00:00 14,0 13,0 28 15 ZZW 1010,6 8 -
15.12.2017 02:00:00 14,0 12,5 34 18 ZZW 1011,7 10 -
15.12.2017 01:00:00 13,8 12,5 34 18 ZZW 1011,9 10 -
15.12.2017 00:00:00 13,8 12,5 29 16 Z 1012,0 10 -
14.12.2017 23:00:00 13,8 12,4 26 14 ZZW 1012,8 10 -
14.12.2017 22:00:00 14,0 12,5 18 10 ZZW 1013,0 15 -
14.12.2017 21:00:00 14,0 12,4 15 8 ZZW 1013,2 15 -
14.12.2017 20:00:00 13,8 12,0 16 9 ZZW 1013,6 10 -
14.12.2017 19:00:00 13,8 11,5 26 14 Z 1013,6 10 -
14.12.2017 18:00:00 13,0 10,5 35 19 ZW 1014,2 10 -
14.12.2017 17:00:00 13,0 10,9 34 18 ZZW 1014,3 10 0
14.12.2017 16:00:00 12,8 10,4 31 17 ZZW 1014,8 10 0
14.12.2017 15:00:00 13,0 10,0 29 16 Z 1014,9 10 0
14.12.2017 14:00:00 12,8 9,4 34 18 ZZW 1015,0 10 0
14.12.2017 13:00:00 12,4 8,9 29 16 ZZW 1016,1 10 0
14.12.2017 12:00:00 12,4 8,5 28 15 ZW 1017,3 10 0
14.12.2017 11:00:00 12,4 7,7 34 18 ZZW 1017,3 10 0
14.12.2017 10:00:00 12,0 7,7 24 13 WZW 1017,4 10 0
14.12.2017 09:00:00 12,2 7,5 22 12 WZW 1017,7 10 0
14.12.2017 08:00:00 12,0 7,1 22 12 W 1017,3 10 0
14.12.2017 07:00:00 11,4 6,9 41 22 W 1017,5 10 -
14.12.2017 06:00:00 10,8 6,7 18 10 WNW 1018,3 10 -
14.12.2017 05:00:00 10,8 6,9 22 12 WNW 1018,3 10 -
14.12.2017 04:00:00 11,0 6,9 28 15 WNW 1018,4 10 -
14.12.2017 03:00:00 11,0 7,3 44 24 WNW 1018,6 10 -
14.12.2017 02:00:00 10,8 6,9 41 22 WNW 1019,1 10 -
14.12.2017 01:00:00 10,8 6,6 39 21 WNW 1019,0 10 -
14.12.2017 00:00:00 10,8 6,5 44 24 WNW 1019,1 10 -
13.12.2017 23:00:00 10,8 6,5 37 20 WNW 1019,3 10 -
13.12.2017 22:00:00 11,0 5,7 39 21 WNW 1019,4 10 -
13.12.2017 21:00:00 11,0 5,5 29 16 WNW 1019,5 10 -
13.12.2017 20:00:00 11,0 5,3 34 18 WNW 1019,4 10 -
13.12.2017 19:00:00 11,0 5,3 22 12 WNW 1019,2 10 -
13.12.2017 18:00:00 11,2 5,5 29 16 W 1018,6 10 -
13.12.2017 17:00:00 11,4 6,9 22 12 W 1018,5 10 -
13.12.2017 16:00:00 11,8 7,5 22 12 W 1018,4 10 0
13.12.2017 15:00:00 12,0 9,0 26 14 W 1018,5 10 60
13.12.2017 14:00:00 12,4 9,4 13 7 W 1018,0 10 24
13.12.2017 13:00:00 12,4 10,5 9 5 W 1018,5 10 0
13.12.2017 12:00:00 12,0 10,4 9 5 W 1019,2 10 0
13.12.2017 11:00:00 12,2 10,8 8 4 W 1019,3 10 0
13.12.2017 10:00:00 11,8 11,0 8 4 W 1019,2 10 0
13.12.2017 09:00:00 11,8 11,0 5 3 WNW 1019,1 9 0
13.12.2017 08:00:00 11,4 10,6 8 4 NNW 1019,1 10 0
13.12.2017 07:00:00 12,4 11,1 8 4 NNW 1018,2 8 -
13.12.2017 06:00:00 12,4 10,8 9 5 W 1018,1 9 -
13.12.2017 05:00:00 12,4 10,8 13 7 WZW 1018,0 10 -
13.12.2017 04:00:00 12,6 11,0 15 8 WZW 1018,0 10 -
13.12.2017 03:00:00 - - - - - - - -
13.12.2017 02:00:00 14,2 13,1 18 10 ZZW 1017,0 10 -
13.12.2017 01:00:00 14,0 12,9 22 12 ZZW 1016,7 10 -
13.12.2017 00:00:00 13,8 12,0 26 14 ZZW 1016,8 10 -
12.12.2017 23:00:00 14,2 12,8 26 14 Z 1016,7 9 -
12.12.2017 22:00:00 14,0 12,9 29 16 Z 1016,7 9 -
12.12.2017 21:00:00 14,0 12,7 24 13 ZZW 1016,5 8 -
12.12.2017 20:00:00 14,0 13,0 22 12 Z 1015,9 8 -
12.12.2017 19:00:00 13,4 12,6 24 13 Z 1015,4 8 -
12.12.2017 18:00:00 13,4 12,9 26 14 Z 1015,0 8 -
12.12.2017 17:00:00 14,4 13,8 26 14 Z 1014,6 8 0
12.12.2017 16:00:00 14,8 13,8 28 15 Z 1013,8 8 30
12.12.2017 15:00:00 15,6 13,4 26 14 Z 1014,0 8 60
12.12.2017 14:00:00 15,4 13,4 26 14 Z 1014,0 8 60
12.12.2017 13:00:00 15,6 13,4 28 15 Z 1013,7 8 0
12.12.2017 12:00:00 15,2 12,7 29 16 Z 1013,8 8 -
12.12.2017 11:00:00 15,2 12,7 34 18 Z 1014,0 8 0
12.12.2017 10:00:00 15,0 12,5 34 18 Z 1013,4 7 0
12.12.2017 09:00:00 15,2 12,5 31 17 Z 1012,9 7 0
12.12.2017 08:00:00 15,2 12,7 35 19 Z 1011,3 7 0
12.12.2017 07:00:00 15,0 13,0 35 19 Z 1011,1 7 -
12.12.2017 06:00:00 14,8 13,0 37 20 Z 1011,0 8 -
12.12.2017 05:00:00 15,0 13,4 42 23 Z 1011,0 9 -
12.12.2017 04:00:00 15,0 13,0 44 24 Z 1010,7 8 -
12.12.2017 03:00:00 14,8 12,7 41 22 Z 1010,9 10 -
12.12.2017 02:00:00 14,8 12,5 42 23 Z 1010,9 10 -
12.12.2017 01:00:00 14,8 12,3 46 25 Z 1010,7 10 -
12.12.2017 00:00:00 14,6 12,1 42 23 Z 1010,0 10 -
11.12.2017 23:00:00 15,0 12,5 44 24 Z 1010,1 10 -
11.12.2017 22:00:00 14,6 12,1 42 23 Z 1009,9 10 -
11.12.2017 21:00:00 14,8 12,3 44 24 Z 1009,8 10 -
11.12.2017 20:00:00 15,0 12,5 44 24 Z 1009,2 10 -
11.12.2017 19:00:00 14,8 12,3 42 23 Z 1009,1 10 -
11.12.2017 18:00:00 14,8 12,1 42 23 Z 1008,9 10 -
11.12.2017 17:00:00 15,0 11,6 44 24 Z 1008,6 10 0
11.12.2017 16:00:00 14,8 11,6 29 16 ZZO 1008,6 8 0
11.12.2017 15:00:00 14,8 11,4 42 23 Z 1008,5 8 0
11.12.2017 14:00:00 15,0 11,8 44 24 Z 1008,7 8 0
11.12.2017 13:00:00 14,8 11,6 44 24 Z 1008,8 9 0
11.12.2017 12:00:00 14,6 11,0 44 24 Z 1009,2 9 0
11.12.2017 11:00:00 14,6 11,2 48 26 Z 1009,5 10 0
11.12.2017 10:00:00 14,2 11,7 44 24 Z 1009,3 10 0
11.12.2017 09:00:00 14,2 12,2 44 24 Z 1008,8 10 0
11.12.2017 08:00:00 14,0 12,2 46 25 Z 1009,8 10 0
11.12.2017 07:00:00 13,8 12,2 44 24 Z 1009,8 10 -
11.12.2017 06:00:00 13,8 12,5 48 26 Z 1009,8 10 -
11.12.2017 05:00:00 13,8 12,2 48 26 Z 1009,8 10 -
11.12.2017 04:00:00 13,6 12,0 48 26 Z 1010,3 10 -
11.12.2017 03:00:00 13,4 11,5 46 25 Z 1010,9 10 -
11.12.2017 02:00:00 13,0 10,9 41 22 Z 1011,3 10 -
11.12.2017 01:00:00 13,0 10,0 41 22 Z 1011,9 10 -
11.12.2017 00:00:00 12,8 10,5 42 23 Z 1013,0 10 -
10.12.2017 23:00:00 12,6 10,1 31 17 Z 1013,3 10 -
10.12.2017 22:00:00 11,8 8,7 28 15 Z 1014,0 10 -
10.12.2017 21:00:00 12,0 8,7 26 14 Z 1014,2 10 -
10.12.2017 20:00:00 12,2 8,3 26 14 Z 1014,2 10 -
10.12.2017 19:00:00 12,0 7,1 26 14 Z 1014,2 10 -

tt = temperatuur
td = dauwpunt
ff = windsnelheid
dd = windrichting
ppp = luchtdruk
vv = zicht
sd = Zonneschijnduur

Weerstations in de omgeving